Location: Saint-Palais-sur-Mer
(45.6429°N, 1.0859°W)
Time: 18:22:13
(UTC+02:00)

BlueWalker 3 - Pass Details

Date: 17 May 2026
Orbit: 447 x 457 km, 53.2° (Epoch: 5 June)

Event Time Altitude Azimuth Distance (km) Brightness Sun altitude
Exits shadow 02:02:57 27° 48° (NE) 884 3.5 -25.1°
Drops below altitude 10° 02:04:45 10° 55° (NE) 1,575 4.9 -25.1°
Sets 02:06:53 0° 58° (ENE) 2,450 5.9 -25.1°
